TimeEST,TemperatureF,Dew PointF,Humidity,Sea Level PressureIn,VisibilityMPH,Wind Direction,Wind SpeedMPH,Gust SpeedMPH,PrecipitationIn,Events,Conditions,WindDirDegrees,DateUTC
12:53 AM,66.9,63.0,87,30.14,10.0,Calm,Calm,-,N/A,,Partly Cloudy,0,2013-01-15 05:53:00
1:53 AM,66.0,63.0,90,30.13,10.0,Calm,Calm,-,N/A,,Partly Cloudy,0,2013-01-15 06:53:00
2:53 AM,66.9,63.0,87,30.12,10.0,Calm,Calm,-,N/A,,Clear,0,2013-01-15 07:53:00
3:53 AM,66.2,62.6,88,30.10,10.0,Calm,Calm,-,N/A,,Clear,0,2013-01-15 08:53:00
4:53 AM,64.9,63.0,93,30.11,10.0,Calm,Calm,-,N/A,,Clear,0,2013-01-15 09:53:00
5:53 AM,64.0,62.1,93,30.11,10.0,Calm,Calm,-,N/A,,Mostly Cloudy,0,2013-01-15 10:53:00
6:53 AM,64.4,62.6,94,30.11,10.0,Calm,Calm,-,N/A,,Scattered Clouds,0,2013-01-15 11:53:00
7:53 AM,68.0,64.9,90,30.13,10.0,Calm,Calm,-,N/A,,Clear,0,2013-01-15 12:53:00
8:53 AM,75.9,66.0,71,30.14,10.0,East,6.9,-,N/A,,Clear,100,2013-01-15 13:53:00
9:53 AM,78.1,64.9,64,30.15,10.0,ESE,10.4,-,N/A,,Partly Cloudy,120,2013-01-15 14:53:00
10:53 AM,80.1,64.9,60,30.14,10.0,ESE,13.8,-,N/A,,Mostly Cloudy,120,2013-01-15 15:53:00
11:53 AM,82.9,64.0,53,30.11,10.0,SE,13.8,20.7,N/A,,Mostly Cloudy,130,2013-01-15 16:53:00
12:53 PM,81.0,63.0,54,30.09,10.0,SE,12.7,-,N/A,,Partly Cloudy,130,2013-01-15 17:53:00
1:53 PM,81.0,63.0,54,30.08,10.0,SE,11.5,-,N/A,,Clear,130,2013-01-15 18:53:00
2:53 PM,81.0,64.0,56,30.07,10.0,SE,15.0,-,N/A,,Mostly Cloudy,130,2013-01-15 19:53:00
3:53 PM,80.1,64.0,58,30.08,10.0,ESE,12.7,-,N/A,,Mostly Cloudy,120,2013-01-15 20:53:00
4:53 PM,77.0,64.0,64,30.10,10.0,East,10.4,-,N/A,,Clear,100,2013-01-15 21:53:00
5:53 PM,75.0,64.9,71,30.11,10.0,ESE,8.1,-,N/A,,Partly Cloudy,120,2013-01-15 22:53:00
6:53 PM,73.0,64.0,73,30.11,10.0,ESE,5.8,-,N/A,,Clear,110,2013-01-15 23:53:00
7:53 PM,71.1,64.0,78,30.10,10.0,East,4.6,-,N/A,,Clear,80,2013-01-16 00:53:00
8:53 PM,70.0,63.0,78,30.09,10.0,East,4.6,-,N/A,,Clear,90,2013-01-16 01:53:00
9:53 PM,69.1,61.0,75,30.08,10.0,East,3.5,-,N/A,,Clear,90,2013-01-16 02:53:00
10:53 PM,68.0,61.0,78,30.06,10.0,Calm,Calm,-,N/A,,Clear,0,2013-01-16 03:53:00
11:53 PM,66.9,61.0,81,30.06,10.0,Calm,Calm,-,N/A,,Clear,0,2013-01-16 04:53:00